Regional Weather Roundup
Issued by NWS

Home | Current Version | Previous Version | Text Only | Print | Product List | Glossary Off
Versions: 1 2 3 4 5 6 7 8 9 10 11 12 13 14 15 16 17 18 19 20 21 22 23 24 25 26 27 28 29 30 31 32 33 34 35 36 37 38 39 40 41 42 43 44 45 46 47 48 49 50

616
ASUS45 KTFX 222210
RWRMT
MONTANA REGIONAL WEATHER ROUNDUP
NATIONAL WEATHER SERVICE GREAT FALLS MT
400 PM MDT FRI JUL 22 2016

NOTE: "FAIR" INDICATES FEW OR NO CLOUDS BELOW 12000 FEET WITH NO
SIGNIFICANT WEATHER AND/OR OBSTRUCTIONS TO VISIBILITY.

MTZ001>007-043-222300-
WEST OF THE DIVIDE

CITY           SKY/WX    TMP DP  RH WIND       PRES   REMARKS
KALISPELL      PTSUNNY   76  49  38 N10G26    30.06R
MISSOULA       SUNNY     85  45  24 W15G26    30.05R
BUTTE          SUNNY     87  24  10 W12G30    30.03F
MULLAN PASS    CLOUDY    53  43  68 NW7G16    30.25F
ANACONDA         N/A     88  34  14 W13G24    29.99F
DEER LODGE       N/A     84  41  21 NW26G35   30.00F
EUREKA           N/A     61  54  77 E7        30.12F
HAMILTON         N/A     82  45  26 W3G20     30.01F
LIBBY            N/A     66  45  45 W5        30.13F
PLAINS           N/A     76  45  33 W15       30.12R
RONAN            N/A     78  48  34 W20       30.11R
$$

MTZ008-052>055-222300-
SOUTHWEST MONTANA

CITY           SKY/WX    TMP DP  RH WIND       PRES   REMARKS
BOZEMAN        MOSUNNY   94  37  13 W15G23    29.92F
DILLON         SUNNY     87  38  17 W23G31    29.97F
W YELLOWSTONE  SUNNY     84  28  13 S23G29    30.19F
ENNIS          SUNNY     93  27   9 S30G48    30.04F
THREE FORKS      N/A     97 N/A N/A SW18      29.90F
TWIN BRIDGES     N/A     92  34  13 SW18      29.95F
$$

MTZ009-010-012-014-046-048-049-054-222300-
EAST SLOPES AND CENTRAL MONTANA

CITY           SKY/WX    TMP DP  RH WIND       PRES   REMARKS
CUT BANK         N/A     85  44  23 W10       29.90S
GREAT FALLS    SUNNY     94  39  14 W10G20    29.86F HX  90
MALMSTROM AFB  SUNNY     91  43  18 SW9       29.85F
HELENA         CLOUDY    97  33  10 NW18G28   29.86F HX  91
CHOTEAU          N/A     93  30  10 W24G33    29.91R
CONRAD           N/A     90  51  26 W13       29.91F
$$

MTZ011-013-016-021-045-047-050-051-222300-
NORTH CENTRAL MONTANA

CITY           SKY/WX    TMP DP  RH WIND       PRES   REMARKS
HAVRE          SUNNY     95  53  24 S6        29.77F HX  92
LEWISTOWN      CLOUDY    88  48  25 S8        29.88F
N BAR RANCH      N/A     88  41  19 S22G29    29.95F
CHINOOK          N/A     95  55  26 E17       29.77F HX  93
$$

MTZ017>020-022>027-061-062-222300-
NORTHEAST MONTANA

CITY           SKY/WX    TMP DP  RH WIND       PRES   REMARKS
GLASGOW        CLOUDY    89  51  27 SE13G23   29.86F
JORDAN           N/A     93  56  28 SE13      29.86F HX  91
SIDNEY         CLOUDY    91  61  36 E12       29.91F HX  91
WOLF POINT     MOSUNNY   96  54  24 SE14G24   29.87F HX  94
PLENTYWOOD       N/A     84  61  45 E13G21    29.96F
POPLAR           N/A     93  52  24 SE18      29.88F HX  90
SCOBEY           N/A     92  67  43 E17       29.93F HX  95
$$

MTZ028>42-056>058-222300-
SOUTHCENTRAL AND SOUTHEAST MONTANA

CITY           SKY/WX    TMP DP  RH WIND       PRES   REMARKS
BAKER          SUNNY     97  62  31 E20G30    29.89F HX  98
BILLINGS       CLOUDY    92  43  18 NE15      29.90F
LIVINGSTON     SUNNY     98  33  10 SW22G33   29.91F HX  92
MILES CITY     PTSUNNY  102  51  18 NE3       29.83F HX  99
EKALAKA          N/A     95  53  24 SE8       29.91F HX  92
FORSYTH          N/A     97  52  21 NE5       29.84F HX  94
LAUREL           N/A     90  47  22 NE9       29.89F
ROUNDUP          N/A     92  44  18 E7        29.81F
$$

REGIONAL REPORTS...DAKOTAS

CITY           SKY/WX    TMP DP  RH WIND       PRES   REMARKS
WILLISTON      CLOUDY    94  56  27 SE12G20   29.95F HX  92
MINOT          MOSUNNY   89  62  40 E13       30.00F
DICKINSON      MOSUNNY   88  71  57 E22G30    29.93F HX  94
BEACH            N/A     90  70  51 E20G30    29.96F HX  95
CROSBY           N/A     79  63  57 SE12      30.02F
WATFORD CITY     N/A     91  61  35 E14G20    29.96R HX  91
BISMARCK       MOSUNNY   88  76  67 E16       29.97F HX  99
GRAND FORKS    CLOUDY    86  62  44 N9        30.01F
FARGO          CLOUDY    85  69  58 NE12      30.00R
BUFFALO SD       N/A    100  51  19 E18       29.81F HX  97
RAPID CITY     CLOUDY    92  58  31 SE14      29.97F HX  91
$$

REGIONAL REPORTS...WYOMING/IDAHO/WASHINGTON

CITY           SKY/WX    TMP DP  RH WIND       PRES   REMARKS
GILLETTE       SUNNY     97  36  12 S8G21     29.98F HX  92
SHERIDAN       SUNNY    101  37  11 VRB5      29.92F HX  95
BUFFALO WY     SUNNY    100  37  11 N13       30.01F HX  95
CODY           CLOUDY    77  54  44 W5        30.11R
YELLOWSTONE LA   N/A     79  34  19 W9G22     30.31F
IDAHO FALLS    MOSUNNY   92  33  12 SW17G28   30.09F
SALMON         SUNNY     91  28  10 SW16G24   29.93F
BOISE          SUNNY     89  42  19 NW13      30.09F
SPOKANE        PTSUNNY   68  54  60 SE14G22   30.11F
$$

REGIONAL REPORTS...ALBERTA

CITY           SKY/WX    TMP DP  RH WIND       PRES   REMARKS
EDMONTON       MOSUNNY   81  52  36 W5        29.84F
CALGARY        CLOUDY    70  52  52 S7        29.92F
LETHBRIDGE     CLOUDY    77  54  44 N6        29.88F
MEDICINE HAT   TSTM      79  61  53 NW12      29.77F
WATERTON GATE    N/A     66  54  63 NE7         N/A
MILK RIVER       N/A     86  50  28 N7          N/A
$$

REGIONAL REPORTS...SASKATCHEWAN

CITY           SKY/WX    TMP DP  RH WIND       PRES   REMARKS
SWIFT CURRENT  SUNNY     81  59  47 SE20G35   29.90F
REGINA         MOSUNNY   84  55  37 E15       29.97F
SASKATOON      PTSUNNY   81  55  41 S10G18    29.98F
CYPRESS HILLS    N/A     81  50  34 SE15G24     N/A
VAL MARIE        N/A     88  52  29 SE18G28     N/A
ROCKGLEN         N/A     84  59  42 E15G23      N/A
$$




USA.gov is the U.S. government's official web portal to all federal, state and local government web resources and services.